Preview of NWS' New Version of Forecast
This preview is not operational and should not be used for support decisions.
Latest weather observations around

Missoula, Missoula International Airport (KMSO)

Using English Units (Switch to International System of Units)
Date/ Time (MDT) Wind (mph) Vis. (mi) Weather Sky Cond. Temp (°F) Rel. Humidity Wind Chill (°F) Heat Index (°F) Pressure Precip. (in)
Air Dwpt 6 hour Altimeter (inHg) Sea level (inHg) 1 hr 3 hr 6 hr
Max Min
Mar 25 23:53 S 3 10 Clear CLR 39 27     62% 37   29.97 30      
Mar 25 22:53 SSE 10 10 Clear CLR 43 27     53% 37   29.98 30.01      
Mar 25 21:53 S 9 10 Clear CLR 44 26     49% 39   29.98 30.01      
Mar 25 20:53 SE 10 10 Clear CLR 46 25     43% 41   29.98 30.02      
Mar 25 19:53 SE 9 10 Clear CLR 49 27     42% 45   29.98 30.01      
Mar 25 18:53 SE 9 10 Clear CLR 52 27     38%     30 30.03      
Mar 25 17:53   10 Clear CLR 52 29     41%     30.02 30.04      
Mar 25 16:53 SSE 14 10 Clear CLR 55 31     40%     30.05 30.06      
Mar 25 15:53 SSE 14 10 Clear CLR 55 30     38%     30.08 30.1      
Mar 25 14:53 S 11 10 Clear CLR 53 32     45%     30.1 30.12      
Mar 25 13:53   10 Clear CLR 52 31     44%     30.11 30.14      
Mar 25 12:53 SSE 14 10 Clear CLR 51 32     48%     30.13 30.16      
Mar 25 11:53 SSE 8 10 Clear CLR 48 33     56% 44   30.17 30.2      
Mar 25 10:53 SSW 3 10 Clear CLR 43 34     70% 41   30.19 30.23      
Mar 25 09:53 Calm 10 Clear CLR 42 33     70%     30.2 30.24      
Mar 25 08:53 NNW 5 10 Partly Cloudy SCT060 36 31     82% 32   30.21 30.26      
Mar 25 07:53 SSW 3 10 Cloudy OVC060 38 31     76% 36   30.21 30.26      
Mar 25 06:53 NE 5 10 Cloudy SCT049 OVC085 36 31     82% 32   30.21 30.25      
Mar 25 05:53 ENE 3 10 Clear   38 31     76% 36   30.21 30.23      
Mar 25 04:53 Calm 10 Cloudy OVC055 40 32     73%     30.21 30.24      
Mar 25 03:53 Calm 10 Cloudy OVC042 39 32     76%     30.21 30.24      
Mar 25 02:53 ESE 3 10 Cloudy OVC039 41 32     70% 39   30.2 30.23      
Mar 25 01:53 S 7 10 Cloudy BKN036 BKN048 OVC080 38 31     76% 33   30.19 30.25      
Mar 25 01:49 S 7 10 Cloudy SCT036 BKN048 OVC080 37 30     75% 32   30.2        
Mar 25 00:53 SSE 6 10 Cloudy FEW049 OVC060 41 32     70% 37   30.18 30.22      
Mar 24 23:53 SE 9 10 Mostly Clear FEW055 42 32     67% 37   30.16 30.21      
Mar 24 22:53 ESE 14 10 Cloudy BKN060 OVC075 45 32     60% 39   30.15 30.19      
Mar 24 21:53 ESE 9 10 Cloudy OVC065 45 33     63% 40   30.13 30.18      
Mar 24 20:53 ENE 3 10 Cloudy OVC065 45 31     58% 44   30.1 30.16      
Mar 24 19:53 WSW 3 10 Clear CLR 45 32     60% 44   30.08 30.15      
Mar 24 18:53 NNE 8 10 Clear CLR 52 31     44%     30.06 30.11      
Mar 24 17:53 N 8 10 Clear CLR 53 32     45%     30.04 30.09      
Mar 24 16:53 W 6 10 Clear CLR 52 35     52%     30.04 30.08      
Mar 24 15:53 NW 7 10 Clear CLR 51 35     54%     30.04 30.09      
Mar 24 14:53 W 6 10 Clear CLR 48 34     58% 45   30.05 30.1      
Mar 24 13:53 WSW 6 10 Clear CLR 42 32     67% 38   30.06 30.12      
Mar 24 12:53 WSW 5 10 Clear CLR 40 32     73% 37   30.08 30.14      
Mar 24 11:53 WSW 3 10 Clear CLR 39 31     72% 37   30.09 30.15      
Mar 24 10:53 WSW 3 10 Mostly Clear FEW085 36 30     79% 33   30.1 30.17      
Mar 24 09:53 Calm 10 Partly Cloudy SCT085 33 30     88%     30.1 30.17      
Mar 24 08:53 Calm 9 Partly Cloudy SCT002 30 26     85%     30.1 30.17      
Mar 24 08:32 Calm 5 Fog/Mist SCT002 27 24     89%     30.1        
Mar 24 08:24 Calm 4 Fog/Mist BKN002 25 23     92%     30.09        
Mar 24 08:14 Calm 3 Fog/Mist SCT002 24 21     88%     30.09        
Mar 24 08:12 Calm 1.5 Fog/Mist FEW002 24 21     88%     30.09        
Mar 24 08:02 Calm 1 Fog/Mist VV002 23 21     92%     30.09        
Mar 24 08:00 Calm 1.75 Fog/Mist FEW002 23 21     92%     30.09        
Mar 24 07:53 W 3 2.5 Fog/Mist CLR 23 21     92% 19   30.09 30.16      
Mar 24 06:53 Calm 10 Clear CLR 26 22     84%     30.08 30.14      
Mar 24 05:53 NNW 3 10 Mostly Clear FEW075 28 24     85% 24   30.08 30.13      
Mar 24 04:53 Calm 10 Clear CLR 29 24     82%     30.08 30.13      
Mar 24 03:53 Calm 10 Clear CLR 28 23     81%     30.07 30.12      
Mar 24 02:53 Calm 10 Clear CLR 31 26     82%     30.06 30.12      
Mar 24 01:53 Calm 10 Clear CLR 31 26     82%     30.05 30.12      
Mar 24 00:53 Calm 10 Clear CLR 33 27     78%     30.05 30.11      
Mar 23 23:53 Calm 10 Clear CLR 34 28     79%     30.05 30.12      
Mar 23 22:53 Calm 10 Clear CLR 36 28     73%     30.05 30.12      
Mar 23 21:53 NE 3 10 Clear CLR 37 29     72% 35   30.05 30.11      
Mar 23 20:53 NW 5 10 Clear CLR 39 29     67% 36   30.04 30.11      
Mar 23 19:53 WNW 6 10 Clear CLR 44 31     60% 41   30.03 30.1      
Mar 23 18:53 NW 3 10 Cloudy OVC060 47 32     56% 46   30.03 30.09      
Mar 23 17:53 W 3 10 Cloudy OVC060 49 33     54% 48   30.02 30.07      
Mar 23 16:53 Calm 10 Mostly Cloudy BKN060 49 31     50%     30.04 30.09      
Mar 23 15:53 Calm 10 Cloudy OVC055 49 33     54%     30.04 30.09      
Mar 23 14:53 WSW 3 10 Cloudy OVC060 44 32     62% 43   30.05 30.11      
Notice The following observation data may not be complete
Mar 23 13:53 WSW 5 10 Cloudy OVC060   31      %     30.07 30.13      
Mar 23 12:53 Calm 10 Cloudy OVC055 41 31     67%     30.08 30.14      
Mar 23 11:53 Calm 10 Cloudy OVC055 37 29     72%     30.08 30.15      
Mar 23 10:53 Calm 10 Cloudy OVC050 36 30     79%     30.09 30.15      
Mar 23 09:53 SE 5 10 Clear   33 28     82% 29   30.08 30.14      
Mar 23 08:53 Calm 10 Clear CLR 30 26     85%     30.09 30.15      
Mar 23 07:53 Calm 10 Clear CLR 28 24     85%     30.08 30.13      
Mar 23 06:53 Calm 10 Clear CLR 28 24     85%     30.06 30.11      
Mar 23 05:53 Calm 10 Clear CLR 29 24     82%     30.05 30.1      
Mar 23 04:53 Calm 10 Clear CLR 29 24     82%     30.03 30.08      
Mar 23 03:53 Calm 10 Clear CLR 31 25     78%     30.02 30.06      
Mar 23 02:53 Calm 10 Clear CLR 32 25     75%     30.01 30.06      
Mar 23 01:53 Calm 10 Clear CLR 31 25     78%     29.99 30.04      
Mar 23 00:53 NNW 3 10 Clear CLR 34 27     75% 31   29.97 30.03      
Mar 22 23:53 Calm 10 Mostly Clear FEW070 33 26     75%     29.96 30.03      
May 14 10:53 S 3 10 Clear CLR 58 42     55%     30.13 30.11      
May 14 06:53 SSE 3 10 Clear CLR 42 37     82% 40   30.14 30.14      
May 12 22:53 Calm 10 Clear CLR 52 38     59%     29.97 29.97      
May 12 18:53 N 9 10 Clear CLR 67 38     34%     29.93 29.93      
May 11 17:53   10 Mostly Clear FEW060 55 44     66%     30.05 30.06     0
Jun 11 20:53   10 Clear   64 35     34%     29.82 29.8      
Jun 11 14:53 W 5 10 Clear CLR 65 28     25%     29.89 29.9      
Jun 10 12:13 5 6 Light Rain FEW035 BKN043 OVC055 52 41     66%     29.75   0    
Jun 10 08:53 S 7 10 Clear CLR 51 41     68%     29.75 29.74      
Jun 09 13:53 7 10 Light Rain FEW026 SCT037 BKN047 57 48     72%     29.8 29.79 0    
Jun 08 21:53   10 Mostly Clear FEW120 64 51     63%     29.75 29.7      
Jun 07 23:53 E 10 10 Clear CLR 70 54     57%     29.84 29.77      
Jun 07 09:53 Calm 10 Clear CLR 66 52     61%     29.99 29.94      
Jun 06 01:53 N 5 10 Clear CLR 47 41     80% 45   30.17 30.15